Location: Newark
(9.1167°S, 159.8667°E)
Time: 04:17:00
(UTC+00:00)

Envisat - Pass Details

Date: 27 September 2019
Orbit: 764 x 766 km, 98.1° (Epoch: 15 October)

Event Time Altitude Azimuth Distance (km) Brightness Sun altitude
Rises 08:06:13 0° 171° (S) 3,240 6.2 -13.2°
Reaches altitude 10° 08:08:32 10° 173° (S) 2,310 5.5 -13.8°
Maximum altitude 08:13:37 76° 257° (WSW) 792 3.2 -15.0°
Drops below altitude 10° 08:18:40 10° 343° (NNW) 2,293 5.6 -16.3°
Sets 08:20:57 0° 345° (NNW) 3,214 6.4 -16.8°
